Regional Weather Roundup
Issued by NWS Bismarck, ND

Home | Current Version | Previous Version | Graphics & Text | Print | Product List | Glossary On
Versions: 1 2 3 4 5 6 7 8 9 10 11 12 13 14 15 16 17 18 19 20 21 22 23 24 25 26 27 28 29 30 31 32 33 34 35 36 37 38 39 40 41 42 43 44 45 46 47 48 49 50
000
ASUS43 KBIS 310802
RWRBIS

NWR BROADCAST TEXT
NATIONAL WEATHER SERVICE BISMARCK ND
300 AM CDT FRI JUL 31 2015

NOTE: "FAIR" INDICATES FEW OR NO CLOUDS BELOW 12,000 FEET WITH NO
SIGNIFICANT WEATHER AND/OR OBSTRUCTIONS TO VISIBILITY.


CITY           SKY/WX    TMP DP  RH WIND       PRES   REMARKS
WILLISTON      CLEAR     55  50  83 W3        30.17S
MINOT          CLEAR     57  48  72 SW12      30.12S
MINOT AFB      CLEAR     53  51  95 W9        30.11S
BISMARCK       CLEAR     57  52  83 SW3       30.17S
DICKINSON      CLEAR     51  45  79 S6        30.19F
GARRISON         N/A     56  52  86 W5        30.16S
HETTINGER ARPT CLEAR     50  46  86 CALM      30.22F
JAMESTOWN      CLEAR     59  50  72 W7        30.12R
HAZEN          FAIR      48  46  93 SW5       30.18S
STANLEY        FAIR      52  52 100 W5        30.17S
$$

CITY           SKY/WX    TMP DP  RH WIND       PRES   REMARKS
GRAND FORKS    CLEAR     56  51  84 W8        30.02S
GRAND FORKS AF CLEAR     60  51  73 NW8       30.03S
DEVILS LAKE    CLEAR     61  50  67 W10       30.07S
FARGO          CLEAR     58  53  84 W8        30.05S
CAVALIER       FAIR      59  50  72 W7        30.01S
GRAFTON        FAIR      61  54  77 W12       30.02S
GWINNER        FAIR      61  54  77 W9        30.12R
LANGDON        FAIR      54  50  87 W8        30.06S
$$

CITY           SKY/WX    TMP DP  RH WIND       PRES   REMARKS
ABERDEEN       CLEAR     54  51  90 W5        30.14R
MOBRIDGE       CLEAR     57  54  89 CALM      30.15S
BUFFALO          N/A     64  47  53 NW3       30.17F
RAPID CITY     CLEAR     58  51  78 N7        30.23R
GLASGOW        CLEAR     63  50  62 NE9       30.16S
SIDNEY         CLEAR     55  48  76 NW3       30.16S
WOLF POINT     CLEAR     55  47  74 CALM      30.17R
GLENDIVE       CLEAR     55  48  76 W8        30.19S
MILES CITY     CLEAR     65  46  50 CALM      30.20S
BAKER          CLEAR     56  44  64 CALM      30.23S
$$

CITY           SKY/WX    TMP DP  RH WIND       PRES   REMARKS
BILLINGS       PTCLDY    66  41  40 N7        30.24S
GREAT FALLS    CLEAR     62  42  47 SW8       30.18S
$$




USA.gov is the U.S. government's official web portal to all federal, state and local government web resources and services.